Tracking 35274 objects as of 10-Sep-2026
HD Live streaming from Space Station
objects crossing your sky now

SPACEBEE-60


SPACEBEE-60 is no longer on orbit


NORAD ID: 47433
Int'l Code: 2021-006W
Launch date: January 24, 2021
Source: United States (US)
Launch site: AIR FORCE EASTERN TEST RANGE (AFETR)
Decay date: 2023-06-03
Your satellite tracking list
Your tracking list is empty




NASA's NSSDC Master Catalog

Two Line Element Set (TLE):
1 47433U 21006W   23153.13736858  .11037051  24854-5  17245-2 0  9992
2 47433  97.3618 220.0655 0018144 262.9297  96.9936 16.33440267131870
Source of the keplerian elements: AFSPC